This is the latest recevied weather packets stored in our database for station/object KA3BQE-13. If no packets are shown the sender has not sent any weather packets the latest 10 day(s).
| Time | Temp. | Humidity | Pressure | Rain* | Wind** | Luminosity | Snow |
|---|---|---|---|---|---|---|---|
| 1778003978 | 12.22° C | 72% | 1011.9 hPa | 0 mm | - | 251 W/m² | - |
| 1778003673 | 12.22° C | 70% | 1012 hPa | 0 mm | - | 289 W/m² | - |
| 1778003370 | 12.22° C | 75% | 1012.1 hPa | 0 mm | - | 440 W/m² | - |
| 1778003063 | 12.78° C | 69% | 1011.9 hPa | 0 mm | - | 609 W/m² | - |
| 1778002758 | 12.78° C | 72% | 1012 hPa | 0 mm | - | 650 W/m² | - |
| 1778002455 | 11.67° C | 73% | 1012 hPa | 0 mm | - | 644 W/m² | - |
| 1778002152 | 11.67° C | 72% | 1012 hPa | 0 mm | - | 386 W/m² | - |
| 1778001850 | 11.67° C | 70% | 1012.3 hPa | 0 mm | - | 364 W/m² | - |
| 1778001549 | 12.22° C | 77% | 1012.2 hPa | 0 mm | - | 364 W/m² | - |
| 1778001247 | 11.67° C | 70% | 1012.1 hPa | 0 mm | - | 396 W/m² | - |
| 1778000943 | 11.67° C | 72% | 1011.7 hPa | 0 mm | - | 333 W/m² | - |
| 1778000640 | 11.67° C | 74% | 1011.7 hPa | 0 mm | - | 296 W/m² | - |
| 1778000335 | 11.67° C | 72% | 1011.8 hPa | 0 mm | - | 341 W/m² | - |
| 1778000030 | 11.11° C | 77% | 1011.7 hPa | 0 mm | - | 405 W/m² | - |
| 1777999726 | 11.67° C | 78% | 1012 hPa | 0 mm | - | 406 W/m² | - |
| 1777999423 | 11.67° C | 78% | 1012.2 hPa | 0 mm | - | 365 W/m² | - |
| 1777999121 | 11.11° C | 77% | 1012.1 hPa | 0 mm | - | 407 W/m² | - |
| 1777998820 | 11.11° C | 78% | 1012.2 hPa | 0 mm | - | 418 W/m² | - |
| 1777998518 | 11.11° C | 79% | 1012 hPa | 0 mm | - | 410 W/m² | - |
| 1777998213 | 10.56° C | 80% | 1011.8 hPa | 0 mm | - | 335 W/m² | - |
| 1777997911 | 10.56° C | 77% | 1012.1 hPa | 0 mm | - | 279 W/m² | - |
| 1777997608 | 10.56° C | 79% | 1011.7 hPa | 0 mm | - | 308 W/m² | - |
| 1777997305 | 10.56° C | 76% | 1011.4 hPa | 0 mm | - | 404 W/m² | - |
| 1777997003 | 10.56° C | 79% | 1011.1 hPa | 0 mm | - | 381 W/m² | - |
| 1777996700 | 10° C | 78% | 1010.9 hPa | 0 mm | - | 329 W/m² | - |
* Rain latest hour (hover to see other rain measurements)
** Current wind speed in m/s (hover to see current wind gust speed)